User: anonymous   Login
Location: Oshawa
(43.9000°N, 78.8670°W)
Time: 11:23:04
(UTC-04:00)
Language:

Cosmos 1408 Rocket - Orbit

View from above orbital plane
View from above orbital plane
View from above satellite
View from above satellite

Ground track
Ground track

The orbit data is extracted from the following two-line orbital elements,

1 13553U 82092B   18110.93496531 +.00000070 +00000-0 +53906-5 0  9994
2 13553 082.5662 307.3504 0022933 106.7386 007.0097 14.84164130901599
Epoch (UTC): 20 April 2018 22:26:21
Eccentricity: 0.0022933
inclination: 82.5662°
perigee height: 600 km
apogee height: 632 km
right ascension of ascending node: 307.3504°
argument of perigee: 106.7386°
revolutions per day: 14.84164130
mean anomaly at epoch: 7.0097°
orbit number at epoch: 90159

The dashed part of the orbit path shows where the satellite is in the earth's shadow,  

DLR